Tracking 22779 objects as of 14-Apr-2021
HD Live streaming from Space Station
objects crossing your sky now

EUTE HOT BIRD 13A (HB 6)

Track EUTE HOT BIRD 13A (HB 6) now!
EUTE HOT BIRD 13A (HB 6) is classified as:


NORAD ID: 27499
Int'l Code: 2002-038A
Perigee: 36,037.9 km
Apogee: 36,083.9 km
Inclination: 3.9 °
Period: 1,449.8 minutes
Semi major axis: 42431 km
RCS: 15.0118 m2 (large)
Launch date: August 21, 2002
Source: European Telecommunications Satellite Organization (EUTE)
Launch site: AIR FORCE EASTERN TEST RANGE (AFETR)

Cable programming; direct-to-home broadcasting; 28 Ku-band, 4 Ka-band transponders
aabbcc
Your satellite tracking list
Your tracking list is empty




NASA's NSSDC Master Catalog

Two Line Element Set (TLE):
1 27499U 02038A   21102.74093477 -.00000094  00000-0  00000+0 0  9994
2 27499   3.9278  80.9371 0005426 306.7155  89.6084  0.99326278 68098
Source of the keplerian elements: AFSPC